******** Week 356 almanac for PRN-1 ******** ID: 1 Health: 0 Eccentricity: 0.001456260681 Time of Applicability(s): 61440 Orbital Inclination(rad): 0.9584527679 Rate of Right Ascen(r/s): -7.840326581e-09 SQRT(A) (m 1/2): 5153.585449 Right Ascen at Week(rad): -2.64383761 Argument of Perigee(rad): 0.01333245021 Mean Anom(rad): -0.2716232066 Af0(s): 0.000266800708 Af1(s/s): -3.637979e-12 week: 356 ******** Week 356 almanac for PRN-2 ******** ID: 2 Health: 0 Eccentricity: 0.0169711113 Time of Applicability(s): 61440 Orbital Inclination(rad): 0.9639115823 Rate of Right Ascen(r/s): -7.646032773e-09 SQRT(A) (m 1/2): 5153.563965 Right Ascen at Week(rad): -2.80644669 Argument of Perigee(rad): -0.835023341 Mean Anom(rad): 1.136084298 Af0(s): 2.336390381e-05 Af1(s/s): 7.275958e-12 week: 356 ******** Week 356 almanac for PRN-3 ******** ID: 3 Health: 0 Eccentricity: 0.0063829422 Time of Applicability(s): 61440 Orbital Inclination(rad): 0.99266773 Rate of Right Ascen(r/s): -8.068907531e-09 SQRT(A) (m 1/2): 5153.593262 Right Ascen at Week(rad): -1.657508561 Argument of Perigee(rad): 1.205618644 Mean Anom(rad): -2.476426977 Af0(s): 0.000459741333 Af1(s/s): -1.091394e-11 week: 356 ******** Week 356 almanac for PRN-4 ******** ID: 4 Health: 0 Eccentricity: 0.003717899322 Time of Applicability(s): 61440 Orbital Inclination(rad): 0.9705808035 Rate of Right Ascen(r/s): -7.851755628e-09 SQRT(A) (m 1/2): 5153.702148 Right Ascen at Week(rad): -0.5862068635 Argument of Perigee(rad): -2.898923336 Mean Anom(rad): 0.5507125853 Af0(s): 3.316166992e-05 Af1(s/s): 3.637979e-12 week: 356 ******** Week 356 almanac for PRN-5 ******** ID: 5 Health: 0 Eccentricity: 0.005365371704 Time of Applicability(s): 61440 Orbital Inclination(rad): 0.9792453981 Rate of Right Ascen(r/s): -8.183198006e-09 SQRT(A) (m 1/2): 5153.636719 Right Ascen at Week(rad): -1.716903503 Argument of Perigee(rad): 1.420901013 Mean Anom(rad): 1.182050542 Af0(s): -0.0001801281616 Af1(s/s): 0 week: 356 ******** Week 356 almanac for PRN-6 ******** ID: 6 Health: 0 Eccentricity: 0.003876209259 Time of Applicability(s): 61440 Orbital Inclination(rad): 0.987394671 Rate of Right Ascen(r/s): -7.520313251e-09 SQRT(A) (m 1/2): 5153.580566 Right Ascen at Week(rad): -2.694119673 Argument of Perigee(rad): -0.604647215 Mean Anom(rad): -1.115948553 Af0(s): -0.0004800905395 Af1(s/s): -3.637979e-12 week: 356 ******** Week 356 almanac for PRN-7 ******** ID: 7 Health: 0 Eccentricity: 0.02027606964 Time of Applicability(s): 61440 Orbital Inclination(rad): 0.9511723512 Rate of Right Ascen(r/s): -7.680319916e-09 SQRT(A) (m 1/2): 5153.587402 Right Ascen at Week(rad): 0.4222383237 Argument of Perigee(rad): -2.000621789 Mean Anom(rad): -2.012056238 Af0(s): -0.0001130511475 Af1(s/s): -3.637979e-12 week: 356 ******** Week 356 almanac for PRN-8 ******** ID: 8 Health: 0 Eccentricity: 0.01148986816 Time of Applicability(s): 61440 Orbital Inclination(rad): 0.9439578479 Rate of Right Ascen(r/s): -7.954617056e-09 SQRT(A) (m 1/2): 5153.616699 Right Ascen at Week(rad): 2.470531861 Argument of Perigee(rad): 0.5106564371 Mean Anom(rad): 0.8302483764 Af0(s): 0.0003926643188 Af1(s/s): -3.637979e-12 week: 356 ******** Week 356 almanac for PRN-9 ******** ID: 9 Health: 0 Eccentricity: 0.003326892853 Time of Applicability(s): 61440 Orbital Inclination(rad): 0.9646845648 Rate of Right Ascen(r/s): -7.977475151e-09 SQRT(A) (m 1/2): 5153.524902 Right Ascen at Week(rad): -0.6502363301 Argument of Perigee(rad): 2.064191361 Mean Anom(rad): 1.432253819 Af0(s): 0.0006089688477 Af1(s/s): 0 week: 356 ******** Week 356 almanac for PRN-10 ******** ID: 10 Health: 0 Eccentricity: 0.01096582413 Time of Applicability(s): 61440 Orbital Inclination(rad): 0.9922003452 Rate of Right Ascen(r/s): -8.068907531e-09 SQRT(A) (m 1/2): 5153.600586 Right Ascen at Week(rad): -1.660018133 Argument of Perigee(rad): -2.259916224 Mean Anom(rad): 2.827158426 Af0(s): -0.0004635097046 Af1(s/s): -3.637979e-12 week: 356 ******** Week 356 almanac for PRN-11 ******** ID: 11 Health: 0 Eccentricity: 0.002233028412 Time of Applicability(s): 61440 Orbital Inclination(rad): 0.9642351564 Rate of Right Ascen(r/s): -7.771752296e-09 SQRT(A) (m 1/2): 5153.517578 Right Ascen at Week(rad): -2.674686878 Argument of Perigee(rad): -2.286373273 Mean Anom(rad): -0.09997689829 Af0(s): -0.0003587489746 Af1(s/s): 1.455192e-11 week: 356 ******** Week 356 almanac for PRN-12 ******** ID: 12 Health: 0 Eccentricity: 0.009058475494 Time of Applicability(s): 61440 Orbital Inclination(rad): 0.958728405 Rate of Right Ascen(r/s): -8.068907531e-09 SQRT(A) (m 1/2): 5153.723633 Right Ascen at Week(rad): 1.540077763 Argument of Perigee(rad): 1.550103316 Mean Anom(rad): -2.637602068 Af0(s): -0.0004800905395 Af1(s/s): 0 week: 356 ******** Week 356 almanac for PRN-13 ******** ID: 13 Health: 0 Eccentricity: 0.009945392609 Time of Applicability(s): 61440 Orbital Inclination(rad): 0.976309263 Rate of Right Ascen(r/s): -7.726036106e-09 SQRT(A) (m 1/2): 5153.632812 Right Ascen at Week(rad): -0.4755651285 Argument of Perigee(rad): 0.9993147058 Mean Anom(rad): 0.5669905333 Af0(s): 0.0005433991821 Af1(s/s): 0 week: 356 ******** Week 356 almanac for PRN-14 ******** ID: 14 Health: 0 Eccentricity: 0.006577014923 Time of Applicability(s): 61440 Orbital Inclination(rad): 0.9420763245 Rate of Right Ascen(r/s): -8.251772291e-09 SQRT(A) (m 1/2): 5153.578613 Right Ascen at Week(rad): 1.485880229 Argument of Perigee(rad): -2.759504106 Mean Anom(rad): -2.825815819 Af0(s): 0.000578821875 Af1(s/s): 3.637979e-12 week: 356 ******** Week 356 almanac for PRN-15 ******** ID: 15 Health: 0 Eccentricity: 0.01660919189 Time of Applicability(s): 61440 Orbital Inclination(rad): 0.9424358513 Rate of Right Ascen(r/s): -8.274630386e-09 SQRT(A) (m 1/2): 5153.631348 Right Ascen at Week(rad): -0.7935549268 Argument of Perigee(rad): 1.495582957 Mean Anom(rad): -0.1721459007 Af0(s): 0.0003022234009 Af1(s/s): 3.637979e-12 week: 356 ******** Week 356 almanac for PRN-16 ******** ID: 16 Health: 0 Eccentricity: 0.01505422592 Time of Applicability(s): 61440 Orbital Inclination(rad): 0.9578775251 Rate of Right Ascen(r/s): -8.091765626e-09 SQRT(A) (m 1/2): 5153.565918 Right Ascen at Week(rad): 1.557113339 Argument of Perigee(rad): 0.9250758031 Mean Anom(rad): 1.83987738 Af0(s): 0.0001575179321 Af1(s/s): 7.275958e-12 week: 356 ******** Week 356 almanac for PRN-17 ******** ID: 17 Health: 0 Eccentricity: 0.01274013519 Time of Applicability(s): 61440 Orbital Inclination(rad): 0.9597410721 Rate of Right Ascen(r/s): -7.794610391e-09 SQRT(A) (m 1/2): 5153.522461 Right Ascen at Week(rad): 2.574747805 Argument of Perigee(rad): -1.129633415 Mean Anom(rad): 0.7340300307 Af0(s): -3.994473877e-05 Af1(s/s): -1.091394e-11 week: 356 ******** Week 356 almanac for PRN-18 ******** ID: 18 Health: 0 Eccentricity: 0.005704879761 Time of Applicability(s): 61440 Orbital Inclination(rad): 0.9723544688 Rate of Right Ascen(r/s): -7.657461821e-09 SQRT(A) (m 1/2): 5153.603027 Right Ascen at Week(rad): -2.698740715 Argument of Perigee(rad): -2.858270598 Mean Anom(rad): -1.250119816 Af0(s): -0.0003444291626 Af1(s/s): 1.091394e-11 week: 356 ******** Week 356 almanac for PRN-19 ******** ID: 19 Health: 0 Eccentricity: 0.01103210449 Time of Applicability(s): 61440 Orbital Inclination(rad): 0.9589561053 Rate of Right Ascen(r/s): -7.737465153e-09 SQRT(A) (m 1/2): 5153.660645 Right Ascen at Week(rad): 2.618644523 Argument of Perigee(rad): 2.920296077 Mean Anom(rad): 2.58183198 Af0(s): 0.0005441528564 Af1(s/s): 0 week: 356 ******** Week 356 almanac for PRN-21 ******** ID: 21 Health: 0 Eccentricity: 0.0006356239319 Time of Applicability(s): 61440 Orbital Inclination(rad): 0.9620959722 Rate of Right Ascen(r/s): -8.377491813e-09 SQRT(A) (m 1/2): 5153.693359 Right Ascen at Week(rad): -1.650376824 Argument of Perigee(rad): -0.4401479988 Mean Anom(rad): -2.832083568 Af0(s): 0.0003090064697 Af1(s/s): 7.275958e-12 week: 356 ******** Week 356 almanac for PRN-22 ******** ID: 22 Health: 0 Eccentricity: 0.01217556 Time of Applicability(s): 61440 Orbital Inclination(rad): 0.9573142665 Rate of Right Ascen(r/s): -8.091765626e-09 SQRT(A) (m 1/2): 5153.560547 Right Ascen at Week(rad): 1.560457686 Argument of Perigee(rad): -0.9960516261 Mean Anom(rad): 1.385654658 Af0(s): -4.069841309e-05 Af1(s/s): 3.637979e-12 week: 356 ******** Week 356 almanac for PRN-23 ******** ID: 23 Health: 0 Eccentricity: 0.00600194931 Time of Applicability(s): 61440 Orbital Inclination(rad): 0.9872149076 Rate of Right Ascen(r/s): -8.114623721e-09 SQRT(A) (m 1/2): 5153.650391 Right Ascen at Week(rad): -1.691984929 Argument of Perigee(rad): -2.741322913 Mean Anom(rad): -2.362487707 Af0(s): 0.0004800905395 Af1(s/s): 3.637979e-12 week: 356 ******** Week 356 almanac for PRN-24 ******** ID: 24 Health: 0 Eccentricity: 0.01785135269 Time of Applicability(s): 61440 Orbital Inclination(rad): 0.93522734 Rate of Right Ascen(r/s): -7.863184676e-09 SQRT(A) (m 1/2): 5153.604004 Right Ascen at Week(rad): 0.314297159 Argument of Perigee(rad): 1.131239675 Mean Anom(rad): -1.030602896 Af0(s): -0.0001100364502 Af1(s/s): 1.455192e-11 week: 356 ******** Week 356 almanac for PRN-25 ******** ID: 25 Health: 0 Eccentricity: 0.01294803619 Time of Applicability(s): 61440 Orbital Inclination(rad): 0.9470857306 Rate of Right Ascen(r/s): -8.194627053e-09 SQRT(A) (m 1/2): 5153.66748 Right Ascen at Week(rad): 1.446533397 Argument of Perigee(rad): 1.153140846 Mean Anom(rad): -2.789995345 Af0(s): 0.0003527195801 Af1(s/s): -3.637979e-12 week: 356 ******** Week 356 almanac for PRN-26 ******** ID: 26 Health: 0 Eccentricity: 0.01098442078 Time of Applicability(s): 61440 Orbital Inclination(rad): 0.927875018 Rate of Right Ascen(r/s): -8.377491813e-09 SQRT(A) (m 1/2): 5153.629883 Right Ascen at Week(rad): 1.372510211 Argument of Perigee(rad): 0.7049424443 Mean Anom(rad): 2.667407585 Af0(s): -0.0002532345703 Af1(s/s): -7.275958e-12 week: 356 ******** Week 356 almanac for PRN-27 ******** ID: 27 Health: 0 Eccentricity: 0.01425790787 Time of Applicability(s): 61440 Orbital Inclination(rad): 0.9530838351 Rate of Right Ascen(r/s): -7.851755628e-09 SQRT(A) (m 1/2): 5153.609863 Right Ascen at Week(rad): 2.502298297 Argument of Perigee(rad): 0.8719077893 Mean Anom(rad): 0.9244563685 Af0(s): -2.487125244e-05 Af1(s/s): -7.275958e-12 week: 356 ******** Week 356 almanac for PRN-28 ******** ID: 28 Health: 0 Eccentricity: 0.0004053115845 Time of Applicability(s): 61440 Orbital Inclination(rad): 0.962137917 Rate of Right Ascen(r/s): -7.623174678e-09 SQRT(A) (m 1/2): 5153.731934 Right Ascen at Week(rad): 0.3961793757 Argument of Perigee(rad): 0.2466484564 Mean Anom(rad): -1.900274503 Af0(s): -0.000476322168 Af1(s/s): 7.275958e-12 week: 356 ******** Week 356 almanac for PRN-29 ******** ID: 29 Health: 0 Eccentricity: 0.003299236298 Time of Applicability(s): 61440 Orbital Inclination(rad): 0.96240157 Rate of Right Ascen(r/s): -7.748894201e-09 SQRT(A) (m 1/2): 5153.724609 Right Ascen at Week(rad): 2.591378538 Argument of Perigee(rad): 2.743397308 Mean Anom(rad): 0.8003484843 Af0(s): -0.0003029770752 Af1(s/s): 7.275958e-12 week: 356 ******** Week 356 almanac for PRN-30 ******** ID: 30 Health: 0 Eccentricity: 0.007936477661 Time of Applicability(s): 61440 Orbital Inclination(rad): 0.9364377467 Rate of Right Ascen(r/s): -7.863184676e-09 SQRT(A) (m 1/2): 5153.725098 Right Ascen at Week(rad): 0.4136609893 Argument of Perigee(rad): -2.338344737 Mean Anom(rad): -2.140231268 Af0(s): 8.441152344e-05 Af1(s/s): 1.091394e-11 week: 356 ******** Week 356 almanac for PRN-31 ******** ID: 31 Health: 0 Eccentricity: 0.01084709167 Time of Applicability(s): 61440 Orbital Inclination(rad): 0.9549294058 Rate of Right Ascen(r/s): -7.703178011e-09 SQRT(A) (m 1/2): 5153.721191 Right Ascen at Week(rad): 0.4463296119 Argument of Perigee(rad): 0.9340913108 Mean Anom(rad): -3.091768989 Af0(s): -0.0001341540283 Af1(s/s): 3.637979e-12 week: 356 ******** Week 356 almanac for PRN-32 ******** ID: 32 Health: 0 Eccentricity: 0.00924539566 Time of Applicability(s): 61440 Orbital Inclination(rad): 0.9677525264 Rate of Right Ascen(r/s): -7.908900866e-09 SQRT(A) (m 1/2): 5153.676758 Right Ascen at Week(rad): -0.6333344534 Argument of Perigee(rad): -2.015755618 Mean Anom(rad): 1.523098363 Af0(s): -8.893356934e-05 Af1(s/s): 1.818989e-11 week: 356